Flag for Germany Weather past 2 weeks in Munich, Bavaria, Germany

Now
45 °F

Partly cloudy.


Feels Like: 39 °F
Forecast: 45 / 49 °F
Wind: 10 mph from Southwest

Location: Munich / Franz Josef Strauss Airport

Current Time: Dec 18, 2014 at 8:31:07 AM

Latest Report: Dec 18, 2014 at 7:50 AM


Visibility: N/A

Pressure: 30.04 "Hg

Humidity: 87%

Dew point: 41 °F

Location of MunichLocation

Historic Weather in Munich — Graph

°F

Munich temperature yesterday

Maximum temperature yesterday: 43 °F (at 1:20 PM)
Minimum temperature yesterday: 36 °F (at 5:20 AM)
Average temperature yesterday: 40 °F

Past Weeks' High & Low Weather Summary

 TemperatureHumidityPressure
High55 °F (Dec 14, 12:20 PM)100% (Dec 3, 7:20 AM)30.42 "Hg (Dec 3, 7:20 AM)
Low25 °F (Dec 9, 7:50 PM)47% (Dec 14, 2:20 PM)29.80 "Hg (Dec 12, 6:20 PM)
Average39 °F87%30.04 "Hg
* Reported Dec 3 7:20 AM — Dec 18 7:20 AM, Munich, Weather by CustomWeather, © 2014

Note: Actual official high and low records may vary slightly from our data, if they occured in-between our weather recording intervals... More about our weather records

Advertising

Munich weather history for previous 24 hours

 ConditionsComfort  
Time TempWeatherWind HumidityBarometerVisibility
7:20 AM
Dec 18
45 °FPassing clouds.12 mph93%30.04 "HgN/A
6:50 AM45 °FLight rain. Passing clouds.14 mph93%30.01 "HgN/A
6:20 AM45 °FLight rain. Overcast.15 mph93%30.01 "HgN/A
5:50 AM45 °FLight rain. Overcast.17 mph87%30.01 "HgN/A
5:20 AM43 °FLight rain. Partly cloudy.17 mph93%30.01 "HgN/A
4:20 AM43 °FPassing clouds.15 mph93%30.01 "HgN/A
3:50 AM43 °FPassing clouds.16 mph93%30.01 "HgN/A
3:20 AM43 °FPassing clouds.15 mph93%30.01 "HgN/A
2:50 AM43 °FPartly cloudy.13 mph93%29.98 "HgN/A
2:20 AM43 °FPassing clouds.15 mph87%29.98 "HgN/A
1:50 AM43 °FPassing clouds.16 mph87%29.98 "HgN/A
1:20 AM43 °FPassing clouds.14 mph87%29.98 "HgN/A
12:50 AM43 °FPassing clouds.17 mph87%29.98 "HgN/A
12:20 AM43 °FPassing clouds.15 mph87%29.95 "HgN/A
11:50 PM
Dec 17
41 °FDrizzle. Overcast.16 mph93%29.95 "HgN/A
11:20 PM41 °FDrizzle. Overcast.16 mph93%29.92 "HgN/A
10:50 PM41 °FDrizzle. Overcast.20 mph93%29.92 "HgN/A
10:20 PM41 °FDrizzle. Overcast.17 mph93%29.89 "HgN/A
9:50 PM41 °FDrizzle. Overcast.18 mph87%29.89 "HgN/A
9:20 PM41 °FDrizzle. Overcast.18 mph87%29.89 "HgN/A
8:50 PM41 °FDrizzle. Overcast.17 mph87%29.89 "HgN/A
8:20 PM41 °FLow clouds.18 mph87%29.86 "HgN/A
7:50 PM41 °FLight rain. Low clouds.21 mph87%29.86 "HgN/A
7:20 PM39 °FLight rain. Low clouds.17 mph93%29.86 "HgN/A
6:50 PM39 °FLight rain. Low clouds.15 mph93%29.86 "HgN/A
6:20 PM39 °FLight rain. Low clouds.14 mph93%29.86 "HgN/A
5:50 PM39 °FLight rain. Overcast.14 mph93%29.83 "HgN/A
5:20 PM39 °FLight rain. Overcast.14 mph93%29.83 "HgN/A
4:50 PM41 °FLight rain. Mostly cloudy.14 mph87%29.83 "HgN/A
4:20 PM41 °FLight rain. Mostly cloudy.15 mph87%29.83 "Hg5 mi
3:50 PM41 °FLight rain. More clouds than sun.17 mph87%29.83 "Hg5 mi
3:20 PM41 °FLight rain. More clouds than sun.10 mph87%29.83 "HgN/A
2:50 PM43 °FLight rain. More clouds than sun.9 mph81%29.83 "HgN/A
2:20 PM43 °FBroken clouds.8 mph81%29.83 "HgN/A
1:50 PM43 °FBroken clouds.12 mph81%29.83 "HgN/A
1:20 PM43 °FBroken clouds.9 mph81%29.86 "HgN/A
12:50 PM41 °FPartly sunny.8 mph81%29.86 "HgN/A
12:20 PM41 °FPartly sunny.8 mph87%29.89 "HgN/A
11:50 AM41 °FBroken clouds.6 mph81%29.92 "HgN/A
11:20 AM39 °FPartly sunny.8 mph87%29.92 "HgN/A
10:50 AM39 °FPartly sunny.7 mph87%29.95 "HgN/A
10:20 AM39 °FPartly sunny.6 mph87%29.95 "HgN/A
9:50 AM39 °FPartly sunny.7 mph81%29.95 "HgN/A
9:20 AM37 °FPartly sunny.8 mph87%29.95 "HgN/A
8:50 AM37 °FPartly sunny.5 mph87%29.98 "HgN/A
8:20 AM37 °FPartly sunny.6 mph87%29.98 "HgN/A
Weather by CustomWeather, © 2014

See weather overviewHow to use our weather pages